sat.trackr.live / text

‹ back to catalog

STARLINK-1572

NORAD 46060 · 2020-055AK

PAYLOAD ACTIVE UNKNOWN

§ Identity

Operator
Country
US
Launch date
2020-08-07
Launch site
AFETR
Launch vehicle
Mass (kg)
RCS (m²)

Purposes: comms

External: N2YO · Heavens-Above · Gunter

§ Orbital elements

Epoch: 2026-09-13T11:31:36.051168Z

Period
94.01 min
Inclination
53.1589°
Eccentricity
0.0001206
Mean motion
15.31720964 rev/d
Perigee alt
469.9 km
Apogee alt
471.5 km
Semi-major
6,848.8 km
B*
2.3156e-4
RAAN
321.5358°
Arg perigee
86.0566°
Mean anomaly
274.0574°
Rev number
33,779

§ Raw data

STARLINK-15721 46060U 20055AK  26256.48027837  .00006832  00000+0  23156-3 0  99962 46060  53.1589 321.5358 0001206  86.0566 274.0574 15.31720964337792

JSON: /api/v1/satellites/46060 · /tle

For live sub-satellite position, see the globe view (requires WebGL).

§ Visibility from observer

Set your observer location to see the next 7 days of passes ≥ 10°. The values pass through the URL so the page stays shareable.

No JS? Fill the form by hand. The geolocation button needs JavaScript.